When you browse on this site, cookies collect data to enhance your experience and personalize the content and advertising you see.
Visit our Privacy Policy to learn more. By continuing to use the site, you agree to this use of cookies and data.
  • In Austria
  • List of Countries
  • For 7 days
  • Water Temperature
  • Weather Map
  • News
  • Weather Widgets
  • user-avatar
    Login

    Hourly Weather Wlora

    Today, 21 January, Tuesday

    Time Temperature Precipitation Wind Pressure Humidity
    00:00 +8°C° 0 mm 3 mps 778 mmHg 67%
    01:00 +8°C° 0 mm 3 mps 778 mmHg 66%
    02:00 +7°C° 0 mm 3 mps 778 mmHg 66%
    03:00 +7°C° 0 mm 3 mps 778 mmHg 66%
    04:00 +7°C° 0 mm 3 mps 779 mmHg 66%
    05:00 +7°C° 0 mm 3 mps 778 mmHg 66%
    06:00 +7°C° 0 mm 3 mps 778 mmHg 65%
    07:00 +7°C° 0 mm 3 mps 778 mmHg 65%
    08:00 +8°C° 0 mm 3 mps 779 mmHg 61%
    09:00 +8°C° 0 mm 4 mps 779 mmHg 57%
    10:00 +10°C° 0 mm 4 mps 779 mmHg 53%
    11:00 +11°C° 0 mm 4 mps 778 mmHg 50%
    12:00 +12°C° 0 mm 5 mps 778 mmHg 47%
    13:00 +12°C° 0 mm 5 mps 778 mmHg 44%
    14:00 +12°C° 0 mm 5 mps 778 mmHg 49%
    15:00 +10°C° 0 mm 6 mps 777 mmHg 53%
    16:00 +9°C° 0 mm 6 mps 777 mmHg 58%
    17:00 +8°C° 0 mm 6 mps 777 mmHg 59%
    18:00 +7°C° 0 mm 6 mps 777 mmHg 60%
    19:00 +5°C° 0 mm 6 mps 777 mmHg 62%
    20:00 +6°C° 0 mm 5 mps 776 mmHg 60%
    21:00 +6°C° 0 mm 5 mps 776 mmHg 59%
    22:00 +6°C° 0 mm 5 mps 776 mmHg 57%
    23:00 +6°C° 0 mm 5 mps 776 mmHg 57%

    Tomorrow, 22 January, Wednesday

    Time Temperature Precipitation Wind Pressure Humidity
    00:00 +6°C° 0 mm 5 mps 776 mmHg 56%
    01:00 +6°C° 0 mm 5 mps 776 mmHg 56%
    02:00 +5°C° 0 mm 5 mps 775 mmHg 56%
    03:00 +5°C° 0 mm 5 mps 775 mmHg 57%
    04:00 +5°C° 0 mm 5 mps 774 mmHg 57%
    05:00 +5°C° 0 mm 5 mps 774 mmHg 55%
    06:00 +5°C° 0 mm 5 mps 774 mmHg 53%
    07:00 +5°C° 0 mm 5 mps 774 mmHg 52%
    08:00 +7°C° 0 mm 5 mps 774 mmHg 48%
    09:00 +8°C° 0 mm 5 mps 774 mmHg 44%
    10:00 +11°C° 0 mm 4 mps 774 mmHg 40%
    11:00 +10°C° 0 mm 5 mps 774 mmHg 42%
    12:00 +12°C° 0 mm 5 mps 773 mmHg 45%
    13:00 +11°C° 0 mm 6 mps 772 mmHg 47%
    14:00 +11°C° 0 mm 6 mps 772 mmHg 52%
    15:00 +10°C° 0 mm 6 mps 772 mmHg 57%
    16:00 +9°C° 0 mm 6 mps 771 mmHg 62%
    17:00 +8°C° 0 mm 6 mps 771 mmHg 62%
    18:00 +7°C° 0 mm 6 mps 771 mmHg 62%
    19:00 +5°C° 0 mm 6 mps 771 mmHg 63%
    20:00 +5°C° 0 mm 6 mps 771 mmHg 62%
    21:00 +5°C° 0 mm 6 mps 770 mmHg 61%
    22:00 +5°C° 0 mm 6 mps 770 mmHg 60%
    23:00 +5°C° 0 mm 6 mps 770 mmHg 60%

    Day after tomorrow, 23 January, Thursday

    Time Temperature Precipitation Wind Pressure Humidity
    00:00 +5°C° 0 mm 6 mps 770 mmHg 59%
    01:00 +5°C° 0 mm 6 mps 770 mmHg 59%
    02:00 +5°C° 0 mm 6 mps 770 mmHg 62%
    03:00 +5°C° 0 mm 6 mps 769 mmHg 65%
    04:00 +5°C° 0 mm 6 mps 769 mmHg 69%
    05:00 +5°C° 0 mm 6 mps 769 mmHg 71%
    06:00 +4°C° 0 mm 6 mps 769 mmHg 73%
    07:00 +4°C° 0 mm 6 mps 769 mmHg 75%
    08:00 +7°C° 0 mm 6 mps 769 mmHg 70%
    09:00 +8°C° 0 mm 6 mps 769 mmHg 65%
    10:00 +10°C° 0 mm 6 mps 769 mmHg 59%
    11:00 +10°C° 0 mm 6 mps 769 mmHg 56%
    12:00 +11°C° 0 mm 6 mps 768 mmHg 52%
    13:00 +13°C° 0 mm 6 mps 768 mmHg 49%
    14:00 +11°C° 0 mm 6 mps 768 mmHg 52%
    15:00 +11°C° 0 mm 6 mps 768 mmHg 55%
    16:00 +10°C° 0 mm 6 mps 768 mmHg 59%
    17:00 +9°C° 0 mm 6 mps 768 mmHg 58%
    18:00 +9°C° 0 mm 5 mps 769 mmHg 58%
    19:00 +8°C° 0 mm 4 mps 769 mmHg 57%
    20:00 +8°C° 0 mm 4 mps 769 mmHg 57%
    21:00 +9°C° 0 mm 3 mps 770 mmHg 56%
    22:00 +9°C° 0 mm 3 mps 770 mmHg 56%
    23:00 +9°C° 0 mm 3 mps 770 mmHg 57%

    24 January, Friday

    Time Temperature Precipitation Wind Pressure Humidity
    00:00 +8°C° 0 mm 4 mps 771 mmHg 59%
    01:00 +8°C° 0 mm 5 mps 771 mmHg 60%
    02:00 +8°C° 0 mm 5 mps 771 mmHg 60%
    03:00 +7°C° 0 mm 6 mps 771 mmHg 60%
    04:00 +7°C° 0 mm 6 mps 771 mmHg 60%
    05:00 +6°C° 0 mm 7 mps 771 mmHg 61%
    06:00 +6°C° 0 mm 7 mps 772 mmHg 63%
    07:00 +6°C° 0 mm 8 mps 772 mmHg 64%
    08:00 +7°C° 0 mm 8 mps 772 mmHg 64%
    09:00 +10°C° 0 mm 8 mps 772 mmHg 64%
    10:00 +11°C° 0 mm 9 mps 773 mmHg 64%
    11:00 +12°C° 0 mm 8 mps 772 mmHg 63%
    12:00 +12°C° 0 mm 8 mps 772 mmHg 62%
    13:00 +13°C° 0 mm 8 mps 772 mmHg 61%
    14:00 +12°C° 0 mm 8 mps 771 mmHg 64%
    15:00 +12°C° 0 mm 8 mps 771 mmHg 68%
    16:00 +11°C° 0 mm 8 mps 771 mmHg 72%
    17:00 +11°C° 0 mm 7 mps 771 mmHg 75%
    18:00 +10°C° 0 mm 7 mps 771 mmHg 78%
    19:00 +9°C° 0 mm 7 mps 771 mmHg 81%
    20:00 +9°C° 0 mm 7 mps 771 mmHg 83%
    21:00 +9°C° 0 mm 8 mps 771 mmHg 84%
    22:00 +9°C° 0 mm 8 mps 772 mmHg 85%
    23:00 +9°C° 0 mm 8 mps 771 mmHg 86%

    25 January, Saturday

    Time Temperature Precipitation Wind Pressure Humidity
    00:00 +9°C° 0 mm 7 mps 771 mmHg 86%
    01:00 +8°C° 0 mm 7 mps 771 mmHg 86%
    02:00 +7°C° 0 mm 8 mps 771 mmHg 86%
    03:00 +7°C° 0 mm 8 mps 770 mmHg 86%
    04:00 +7°C° 0 mm 8 mps 770 mmHg 86%
    05:00 +7°C° 0.1 mm 8 mps 770 mmHg 85%
    06:00 +7°C° 0.1 mm 8 mps 770 mmHg 84%
    07:00 +7°C° 0.1 mm 8 mps 770 mmHg 84%
    08:00 +9°C° 0.1 mm 8 mps 770 mmHg 80%
    09:00 +11°C° 0.1 mm 8 mps 770 mmHg 76%
    10:00 +12°C° 0.1 mm 8 mps 771 mmHg 72%
    11:00 +12°C° 0.1 mm 8 mps 770 mmHg 70%
    12:00 +13°C° 0.1 mm 8 mps 770 mmHg 69%
    13:00 +15°C° 0.1 mm 9 mps 769 mmHg 68%
    14:00 +13°C° 0.1 mm 9 mps 769 mmHg 70%
    15:00 +13°C° 0.1 mm 9 mps 769 mmHg 73%
    16:00 +12°C° 0.1 mm 9 mps 769 mmHg 75%
    17:00 +11°C° 0 mm 9 mps 769 mmHg 77%
    18:00 +11°C° 0 mm 9 mps 769 mmHg 80%
    19:00 +10°C° 0 mm 8 mps 769 mmHg 82%
    20:00 +10°C° 0 mm 8 mps 769 mmHg 83%
    21:00 +9°C° 0 mm 8 mps 769 mmHg 84%
    22:00 +9°C° 0 mm 8 mps 769 mmHg 85%
    23:00 +9°C° 0 mm 8 mps 769 mmHg 85%

    26 January, Sunday

    Time Temperature Precipitation Wind Pressure Humidity
    00:00 +9°C° 0 mm 8 mps 769 mmHg 85%
    01:00 +9°C° 0 mm 8 mps 769 mmHg 85%
    02:00 +9°C° 0 mm 8 mps 769 mmHg 84%
    03:00 +9°C° 0 mm 7 mps 769 mmHg 82%
    04:00 +9°C° 0 mm 7 mps 769 mmHg 81%
    05:00 +9°C° 0 mm 7 mps 769 mmHg 80%
    06:00 +9°C° 0 mm 7 mps 769 mmHg 80%
    07:00 +9°C° 0 mm 8 mps 769 mmHg 79%
    08:00 +10°C° 0 mm 8 mps 769 mmHg 77%
    09:00 +11°C° 0 mm 8 mps 769 mmHg 75%
    10:00 +12°C° 0 mm 8 mps 769 mmHg 73%
    11:00 +13°C° 0 mm 8 mps 769 mmHg 70%
    12:00 +13°C° 0 mm 8 mps 769 mmHg 68%
    13:00 +15°C° 0 mm 8 mps 768 mmHg 65%
    14:00 +15°C° 0 mm 8 mps 768 mmHg 68%
    15:00 +15°C° 0 mm 8 mps 768 mmHg 70%
    16:00 +13°C° 0 mm 8 mps 767 mmHg 73%
    17:00 +13°C° 0 mm 8 mps 768 mmHg 75%
    18:00 +12°C° 0 mm 8 mps 768 mmHg 78%
    19:00 +11°C° 0 mm 8 mps 768 mmHg 80%
    20:00 +11°C° 0 mm 8 mps 768 mmHg 80%
    21:00 +11°C° 0 mm 8 mps 768 mmHg 80%
    22:00 +11°C° 0 mm 8 mps 768 mmHg 80%
    23:00 +11°C° 0 mm 7 mps 768 mmHg 79%
    Show more